Meteopurmerend
purmerend
Purmerend - Baaienwijk



My webcam  My webcam


Onweer radar Meer informatie blitzortung!


Regen radar Meer informatie rain snow radar


Bezoek onze andere website:

CandyAppleRed WebdesignWebdesign Purmerend Candy Apple Red

MeteopurmerendBlog

Template documentation
and downloads



Het weer levert geen direct gevaar op.    Er zijn geen waarschuwingen afgegeven.

15 daagse weersverwachting Plymouth (GB)

  • Overzicht
  • Per uur
  • 15 dagen
  • Extra
  • Vergelijk
  • Kaarten
  • Dagkaart
  • Meer »
  • Info
  • Statistieken
  • Directe link
    Temp 6h Neerslag Wind  
 07:40     16:25    Daglengte: 8:45 Vandaag
18:00
 
8
 07:42     16:24    Daglengte: 8:42 Morgen
00:00
 
7
06:00
10°
7.5 mm
7
12:00
10°
12.1 mm
7
18:00
15.2 mm
5
 07:43     16:23    Daglengte: 8:40 Vrijdag 22 Nov
00:00
15.5 mm
5
06:00
8.9 mm
4
12:00
10°
18.8 mm
6
18:00
10°
25.2 mm
8
 07:45     16:22    Daglengte: 8:37 Zaterdag 23 Nov
00:00
10°
22.7 mm
6
06:00
23.1 mm
3
12:00
10°
47.7 mm
4
Locatie info
Region: England
Latitude: 50.3762°N
Longitude: -4.1366°E
14 masl
Postcode: PL4 8
Temp/Neerslag /Baro Onweer/Dauwpunt
    Temp Baro 1h Neerslag Dauwpunt Wind UV Bewolking  
 07:40     16:25    Daglengte: 8:45 Vandaag
16:00
Voelt als: 3.8°
1004.1 hPa
48%
3.8°
8
Windvlaag: 3.7 m/s
76%
17:00
Voelt als: 3.6°
1003.8 hPa
13%
3.5°
8
Windvlaag: 3.7 m/s
62%
18:00
Voelt als: 3.8°
1003.4 hPa
14%
3.7°
8
Windvlaag: 3.2 m/s
79%
19:00
Voelt als: 4.4°
1003.0 hPa
20%
4.1°
7
Windvlaag: 3.2 m/s
82%
20:00
Voelt als: 5.0°
1002.6 hPa
23%
5.0°
7
Windvlaag: 3.2 m/s
89%
21:00
Voelt als: 5.4°
1002.4 hPa
31%
5.5°
7
Windvlaag: 4.1 m/s
89%
22:00
Voelt als: 5.8°
1002.0 hPa
72%
5.5°
8
Windvlaag: 4.6 m/s
78%
23:00
Voelt als: 5.9°
1001.6 hPa
77%
5.7°
8
Windvlaag: 4.5 m/s
87%
 07:42     16:24    Daglengte: 8:42 Morgen
00:00
Voelt als: 6.0°
1001.1 hPa
77%
6.2°
7
Windvlaag: 4.1 m/s
88%
01:00
Voelt als: 6.1°
1000.6 hPa 0.7 mm
75%
6.7°
8
Windvlaag: 3.9 m/s
89%
02:00
Voelt als: 6.1°
1000.1 hPa 0.9 mm
73%
7.0°
8
Windvlaag: 4 m/s
88%
03:00
Voelt als: 6.1°
999.6 hPa 1.4 mm
77%
7.4°
7
Windvlaag: 3.9 m/s
88%
04:00
Voelt als: 6.2°
999.1 hPa 1.5 mm
75%
7.8°
7
Windvlaag: 4 m/s
90%
05:00
Voelt als: 6.2°
999.0 hPa 1.6 mm
79%
7.9°
7
Windvlaag: 4 m/s
90%
06:00
10°
Voelt als: 6.3°
998.6 hPa 1.5 mm
80%
8.0°
7
Windvlaag: 3.9 m/s
91%
07:00
10°
Voelt als: 6.5°
998.3 hPa 1.6 mm
80%
7.7°
7
Windvlaag: 3.6 m/s
90%
08:00
Voelt als: 6.3°
998.2 hPa 1.6 mm
82%
7.7°
7
Windvlaag: 3.7 m/s
91%
09:00
Voelt als: 6.1°
998.1 hPa 1.9 mm
82%
7.5°
7
Windvlaag: 4.1 m/s
91%
10:00
10°
Voelt als: 6.2°
997.8 hPa 1.9 mm
82%
7.8°
7
Windvlaag: 3.9 m/s
90%
11:00
10°
Voelt als: 6.3°
997.3 hPa 2.4 mm
82%
8.1°
7
Windvlaag: 4.4 m/s
90%
12:00
10°
Voelt als: 6.4°
996.7 hPa 2.7 mm
82%
8.3°
7
Windvlaag: 4.8 m/s
91%
13:00
10°
Voelt als: 7.1°
996.2 hPa 2.1 mm
82%
8.5°
6
Windvlaag: 3.6 m/s
87%
14:00
10°
Voelt als: 7.3°
995.7 hPa 2.3 mm
82%
8.4°
5
Windvlaag: 3.5 m/s
89%
15:00
10°
995.4 hPa 2.5 mm
82%
8.0°
5
Windvlaag: 3 m/s
87%
16:00
10°
Voelt als: 7.1°
995.2 hPa 2.4 mm
82%
7.8°
5
Windvlaag: 2.9 m/s
75%
17:00
Voelt als: 6.8°
995.0 hPa 2.9 mm
82%
7.2°
5
Windvlaag: 3.3 m/s
77%
18:00
Voelt als: 6.7°
994.7 hPa 2.9 mm
82%
6.8°
5
Windvlaag: 2.4 m/s
81%
19:00
Voelt als: 6.6°
994.5 hPa 2.2 mm
78%
6.7°
5
Windvlaag: 2.2 m/s
78%
20:00
Voelt als: 6.6°
994.3 hPa 2.4 mm
78%
6.8°
5
Windvlaag: 2.7 m/s
80%
21:00
Voelt als: 6.7°
994.2 hPa 2.8 mm
76%
6.3°
4
Windvlaag: 2.4 m/s
60%
22:00
Voelt als: 6.2°
993.9 hPa 2.9 mm
76%
6.0°
5
Windvlaag: 2.6 m/s
58%
23:00
Voelt als: 5.8°
993.6 hPa 2.9 mm
76%
5.9°
5
Windvlaag: 2.3 m/s
59%
 07:43     16:23    Daglengte: 8:40 Vrijdag 22 Nov
00:00
Voelt als: 5.6°
993.4 hPa 2.2 mm
77%
6.1°
5
Windvlaag: 3 m/s
58%
01:00
Voelt als: 5.5°
993.2 hPa 2.6 mm
80%
6.0°
5
Windvlaag: 2.4 m/s
46% warningclass
02:00
Voelt als: 5.4°
992.9 hPa 3.4 mm
81%
5.7°
5
Windvlaag: 1.2 m/s
50%
03:00
Voelt als: 5.4°
992.6 hPa
35%
5.7°
4
Windvlaag: 1.7 m/s
49%
04:00
Voelt als: 5.2°
992.4 hPa
64%
5.9°
4
Windvlaag: 1 m/s
53%
05:00
Voelt als: 5.7°
992.4 hPa
69%
6.0°
4
Windvlaag: 0.2 m/s
43%
06:00
Voelt als: 5.9°
992.3 hPa 2.9 mm
72%
6.2°
4
Windvlaag: 0.3 m/s
54%
07:00
Voelt als: 5.7°
992.1 hPa 2.8 mm
74%
6.2°
4
Windvlaag: 1 m/s
75%
08:00
Voelt als: 5.8°
992.3 hPa 3.0 mm
76%
6.7°
4
Windvlaag: 0.6 m/s
78%
09:00
Voelt als: 6.8°
992.0 hPa 2.7 mm
95%
7.1°
3
Windvlaag: 2.9 m/s
98%
10:00
Voelt als: 6.6°
991.8 hPa 2.8 mm
95%
7.5°
5
Windvlaag: 3.7 m/s
100%
11:00
Voelt als: 7.0°
991.3 hPa 3.5 mm
100%
7.8°
5
Windvlaag: 3.6 m/s
100%
12:00
10°
Voelt als: 6.9°
990.5 hPa 4.0 mm
100%
8.1°
6
Windvlaag: 3.8 m/s
100%
13:00
10°
Voelt als: 6.9°
989.6 hPa 3.6 mm
100%
7.7°
5
Windvlaag: 3.5 m/s
100%
14:00
Voelt als: 6.6°
988.9 hPa 3.5 mm
100%
7.3°
6
Windvlaag: 3.6 m/s
100%
15:00
Voelt als: 6.3°
988.4 hPa 3.5 mm
100%
6.8°
7
Windvlaag: 0.3 m/s
100%
16:00
Voelt als: 6.2°
988.1 hPa 3.6 mm
100%
7.6°
7
Windvlaag: 1.3 m/s
100%
17:00
10°
Voelt als: 6.7°
987.8 hPa 5.3 mm
100%
7.5°
7
Windvlaag: 2.2 m/s
100%
18:00
10°
Voelt als: 6.4°
987.8 hPa 5.7 mm
100%
7.7°
8
Windvlaag: 3.7 m/s
100%
19:00
10°
Voelt als: 6.3°
987.7 hPa 3.9 mm
100%
7.6°
8
Windvlaag: 3.8 m/s
100%
20:00
10°
Voelt als: 6.3°
987.6 hPa 3.7 mm
100%
7.1°
8
Windvlaag: 3.2 m/s
98%
21:00
10°
Voelt als: 6.1°
987.7 hPa 3.8 mm
100%
7.1°
8
Windvlaag: 3.3 m/s
100%
22:00
10°
Voelt als: 6.4°
987.4 hPa 3.7 mm
100%
7.2°
7
Windvlaag: 3.3 m/s
100%
23:00
10°
Voelt als: 6.6°
986.9 hPa 3.8 mm
100%
7.5°
7
Windvlaag: 2.7 m/s
100%
 07:45     16:22    Daglengte: 8:37 Zaterdag 23 Nov
00:00
10°
Voelt als: 6.9°
986.4 hPa 3.8 mm
100%
7.6°
6
Windvlaag: 2 m/s
100%
01:00
10°
Voelt als: 7.3°
986.1 hPa 3.8 mm
100%
8.1°
5
Windvlaag: 1.9 m/s
99%
02:00
10°
Voelt als: 7.5°
985.9 hPa 3.7 mm
100%
8.2°
5
Windvlaag: 1.7 m/s
98%
03:00
10°
Voelt als: 7.6°
985.6 hPa 3.7 mm
100%
8.2°
4
Windvlaag: 1.1 m/s
100%
04:00
10°
Voelt als: 7.8°
985.5 hPa 3.8 mm
100%
8.2°
3
Windvlaag: 1.1 m/s
99%
05:00
10°
Voelt als: 7.9°
985.6 hPa 4.2 mm
100%
8.3°
3
Windvlaag: 0.3 m/s
100%
06:00
Voelt als: 7.8°
986.0 hPa 3.9 mm
100%
8.1°
3
Windvlaag: -0.2 m/s
100%
07:00
10°
Voelt als: 8.2°
988.2 hPa 7.3 mm
100%
8.5°
3
Windvlaag: 13 m/s
99%
08:00
10°
Voelt als: 8.2°
988.9 hPa 7.6 mm
100%
8.7°
3
Windvlaag: 13 m/s
100%
09:00
10°
989.5 hPa 7.9 mm
100%
8.8°
4
Windvlaag: 13 m/s
100%
10:00
10°
990.3 hPa 8.1 mm
100%
9.0°
4
Windvlaag: 12.2 m/s
100%
11:00
10°
990.9 hPa 8.3 mm
100%
9.1°
4
Windvlaag: 9.9 m/s
100%
12:00
10°
991.3 hPa 8.5 mm
100%
9.2°
4
Windvlaag: 1.3 m/s
100%
13:00
10°
Voelt als: 8.0°
993.2 hPa 24.5 mm
100%
8.7°
4
Windvlaag: 8.5 m/s
93%
14:00
10°
Voelt als: 7.6°
993.9 hPa 25.2 mm
100%
8.4°
4
Windvlaag: 5.9 m/s
86%
15:00
Voelt als: 7.2°
994.6 hPa 25.4 mm
100%
8.1°
4
Windvlaag: 7.4 m/s
76%
Temp/Neerslag /Baro Onweer/Dauwpunt
    Temp Baro Neerslag Dauwpunt Wind Bewolking  
 07:40     16:25    Daglengte: 8:45 Vandaag
18:00
Voelt als: 3.8°
1003.4 hPa   3.7°
8
79%
21:00
Voelt als: 5.4°
1002.4 hPa   5.5°
7
89%
 07:42     16:24    Daglengte: 8:42 Morgen
00:00
Voelt als: 6.0°
1001.1 hPa   6.2°
7
88%
03:00
Voelt als: 6.1°
999.6 hPa 2.9 mm 7.4°
7
88%
06:00
10°
Voelt als: 6.3°
998.6 hPa 4.6 mm 8.0°
7
91%
09:00
Voelt als: 6.1°
998.1 hPa 5.0 mm 7.5°
7
91%
12:00
10°
Voelt als: 6.4°
996.7 hPa 7.0 mm 8.3°
7
91%
15:00
10°
995.4 hPa 7.0 mm 8.0°
5
87%
18:00
Voelt als: 6.7°
994.7 hPa 8.2 mm 6.8°
5
81%
21:00
Voelt als: 6.7°
994.2 hPa 7.4 mm 6.3°
4
60%
 07:43     16:23    Daglengte: 8:40 Vrijdag 22 Nov
00:00
Voelt als: 5.6°
993.4 hPa 8.1 mm 6.1°
5
58%
03:00
Voelt als: 5.4°
992.6 hPa 6.0 mm 5.7°
4
49%
06:00
Voelt als: 5.9°
992.3 hPa 2.9 mm 6.2°
4
54%
09:00
Voelt als: 6.8°
992.0 hPa 8.4 mm 7.1°
3
98%
12:00
10°
Voelt als: 6.9°
990.5 hPa 10.4 mm 8.1°
6
100%
15:00
Voelt als: 6.3°
988.4 hPa 10.6 mm 6.8°
7
100%
18:00
10°
Voelt als: 6.4°
987.8 hPa 14.7 mm 7.7°
8
100%
21:00
10°
Voelt als: 6.1°
987.7 hPa 11.3 mm 7.1°
8
100%
 07:45     16:22    Daglengte: 8:37 Zaterdag 23 Nov
00:00
10°
Voelt als: 6.9°
986.4 hPa 11.4 mm 7.6°
6
100%
03:00
10°
Voelt als: 7.6°
985.6 hPa 11.2 mm 8.2°
4
100%
06:00
Voelt als: 7.8°
986.0 hPa 11.9 mm 8.1°
3
100%
09:00
10°
989.5 hPa 22.8 mm 8.8°
4
100%
12:00
10°
991.3 hPa 24.9 mm 9.2°
4
100%
15:00
Voelt als: 7.2°
994.6 hPa 75.1 mm 8.1°
4
76%
18:00
Voelt als: 5.9°
996.8 hPa 77.5 mm 7.3°
5
58%
21:00
Voelt als: 5.6°
999.8 hPa 45.4 mm 5.9°
4
61%
 07:47     16:21    Daglengte: 8:34 Zondag 24 Nov
00:00
Voelt als: 5.7°
1001.1 hPa 45.4 mm 5.3°
3
67%
03:00
Voelt als: 5.8°
1000.8 hPa 45.4 mm 6.5°
5
80%
06:00
Voelt als: 6.1°
1000.5 hPa 45.4 mm 7.8°
6
92%
09:00
10°
Voelt als: 6.5°
997.0 hPa 45.4 mm 8.6°
8
92%
12:00
11°
993.4 hPa 45.4 mm 9.3°
11
92%
15:00
11°
992.3 hPa 45.4 mm 10.3°
9
87%
18:00
12°
991.2 hPa 45.5 mm 11.3°
8
82%
21:00
12°
990.6 hPa 47.0 mm 10.5°
6
84%
 07:48     16:20    Daglengte: 8:32 Maandag 25 Nov
00:00
11°
990.0 hPa 52.9 mm 9.7°
5
85%
03:00
10°
990.8 hPa 54.8 mm 8.7°
5
81%
06:00
10°
Voelt als: 6.8°
991.6 hPa 55.6 mm 7.8°
5
77%
09:00
10°
992.8 hPa 57.6 mm 7.6°
7
49%
12:00
11°
993.9 hPa 58.3 mm 7.2°
8
20%
15:00
11°
995.2 hPa 58.7 mm 6.9°
7
48%
18:00
10°
996.4 hPa 59.0 mm 6.5°
7
75%
21:00
10°
Voelt als: 7.1°
997.8 hPa 59.1 mm 7.1°
6
56%
 07:50     16:19    Daglengte: 8:29 Dinsdag 26 Nov
00:00
10°
Voelt als: 7.1°
999.0 hPa 59.2 mm 7.8°
6
37%
03:00
10°
Voelt als: 7.0°
999.6 hPa 59.3 mm 7.8°
5
42%
06:00
10°
Voelt als: 6.9°
1000.0 hPa 59.4 mm 7.8°
5
48%
09:00
10°
1000.3 hPa 59.4 mm 8.0°
5
70%
12:00
11°
1000.5 hPa 59.5 mm 8.3°
5
91%
15:00
11°
998.9 hPa 59.5 mm 8.4°
4
91%
18:00
11°
997.2 hPa 60.7 mm 8.6°
4
92%
21:00
11°
992.3 hPa 61.5 mm 9.2°
6
92%
 07:51     16:18    Daglengte: 8:27 Woensdag 27 Nov
00:00
11°
987.4 hPa 66.8 mm 9.8°
8
92%
03:00
11°
984.6 hPa 67.7 mm 9.6°
8
89%
06:00
11°
981.8 hPa 68.3 mm 9.4°
7
87%
09:00
11°
980.7 hPa 68.6 mm 9.3°
8
60%
12:00
11°
979.4 hPa 69.3 mm 9.2°
8
33%
15:00
10°
981.1 hPa   8.6°
6
62%
18:00
10°
Voelt als: 7.2°
982.8 hPa 142.7 mm 7.9°
4
90%
 07:52     16:18    Daglengte: 8:26 Donderdag 28 Nov
00:00
Voelt als: 7.1°
986.0 hPa 148.5 mm 7.4°
3
37%
06:00
Voelt als: 5.4°
988.9 hPa 151.9 mm 6.2°
3
46%
12:00
10°
991.6 hPa 153.7 mm 6.8°
4
27%
18:00
Voelt als: 5.9°
994.0 hPa 155.5 mm 5.6°
4
90%
 07:54     16:17    Daglengte: 8:23 Vrijdag 29 Nov
00:00
Voelt als: 5.6°
997.4 hPa 156.1 mm 5.2°
5
59%
06:00
Voelt als: 5.5°
999.2 hPa 156.4 mm 4.6°
7
22%
12:00
Voelt als: 4.5°
1001.0 hPa 156.7 mm 5.8°
8
76%
18:00
Voelt als: 4.6°
1001.5 hPa 156.8 mm 4.5°
5
51%
 07:55     16:16    Daglengte: 8:21 Zaterdag 30 Nov
00:00
Voelt als: 4.3°
1005.2 hPa 156.8 mm 4.3°
4
17%
06:00
Voelt als: 2.9°
1007.5 hPa 156.9 mm 3.9°
6
1%
12:00
10°
1010.1 hPa 2.0 mm 6.6°
2
74%
18:00
10°
1009.5 hPa 3.0 mm 6.7°
3
68%
 07:57     16:16    Daglengte: 8:19 Zondag 01 Dec
00:00
10°
Voelt als: 7.8°
1010.8 hPa 1.3 mm 6.5°
4
67%
06:00
10°
Voelt als: 7.6°
1011.5 hPa 1.4 mm 6.7°
5
71%
12:00
11°
1012.3 hPa 1.1 mm 7.6°
6
74%
18:00
11°
1010.7 hPa 2.3 mm 7.8°
5
71%
 07:58     16:15    Daglengte: 8:17 Maandag 02 Dec
00:00
11°
1010.3 hPa 2.4 mm 7.7°
7
69%
06:00
11°
1010.1 hPa 1.6 mm 7.9°
6
65%
12:00
11°
1011.3 hPa 1.6 mm 8.2°
6
68%
18:00
11°
1011.0 hPa 1.4 mm 7.6°
6
78%
 07:59     16:15    Daglengte: 8:16 Dinsdag 03 Dec
00:00
10°
1010.5 hPa 1.3 mm 7.4°
5
73%
06:00
10°
1010.0 hPa 0.4 mm 7.2°
4
71%
12:00
11°
1011.4 hPa 1.1 mm 7.5°
4
72%
18:00
10°
1011.7 hPa 2.0 mm 7.1°
3
80%
 08:00     16:14    Daglengte: 8:14 Woensdag 04 Dec
00:00
10°
1011.4 hPa 2.1 mm 7.4°
4
79%
06:00
10°
1010.6 hPa 1.7 mm 7.5°
4
70%
12:00
11°
1011.8 hPa 2.4 mm 7.3°
4
68%
18:00
10°
1011.0 hPa 2.5 mm 7.4°
5
72%
 08:02     16:14    Daglengte: 8:12 Donderdag 05 Dec
00:00
11°
1010.5 hPa 2.1 mm 7.9°
6
67%
06:00
11°
1009.9 hPa 2.1 mm 8.0°
5
67%
12:00
11°
1011.1 hPa 1.3 mm 7.7°
5
70%
  CAPE Lifted Index Hail Supercell Tornado SRH 3km CL BTM PRES CL TOP PRES Swiss DWD icon SMHI TS
 07:40     16:25    Daglengte: 8:45 Vandaag
16:00 0 J/kg 5.9 K 0 % 0 % 0 % 0 m²/s² 0 0 10.49 3
17:00 0 J/kg 5.7 K 0 % 0 % 0 % 0 m²/s² 0 0 11.04 3
18:00 2 J/kg 5.6 K 0 % 0 % 0 % 0 m²/s² 0 0 10.43 3
19:00 2 J/kg 5.6 K 0 % 0 % 0 % 0 m²/s² 0 0 9.83 3
20:00 1 J/kg 5.0 K 0 % 0 % 0 % 0 m²/s² 0 0 8.63 3
21:00 1 J/kg 4.3 K 0 % 0 % 0 % 0 m²/s² 0 0 7.15 3
22:00 1 J/kg 3.9 K 0 % 0 % 0 % 0 m²/s² 0 0 6.24 3
23:00 0 J/kg 3.5 K 0 % 0 % 0 % 0 m²/s² 0 0 5.57 3
 07:42     16:24    Daglengte: 8:42 Morgen
00:00 1 J/kg 3.0 K 0 % 0 % 0 % 0 m²/s² 0 0 5.4 3
01:00 0 J/kg 2.3 K 0 % 0 % 0 % 0 m²/s² 0 0 4.64 3
02:00 5 J/kg 2.0 K 0 % 0 % 0 % 0 m²/s² 0 0 4.7 3
03:00 22 J/kg 1.8 K 0 % 0 % 0 % 0 m²/s² 0 0 3.99 3
04:00 36 J/kg 1.7 K 0 % 0 % 0 % 0 m²/s² 0 0 2.57 3
05:00 60 J/kg 1.2 K 0 % 0 % 0 % 0 m²/s² 0 0 1.86 80
06:00 54 J/kg 0.9 K 0 % 0 % 0 % 0 m²/s² 0 0 1.23 3
07:00 63 J/kg 0.8 K 0 % 0 % 0 % 0 m²/s² 0 0 1.13 80
08:00 93 J/kg 0.8 K 0 % 0 % 0 % 0 m²/s² 0 0 1.16 80
09:00 51 J/kg 1.8 K 0 % 0 % 0 % 0 m²/s² 0 0 2.16 80
10:00 44 J/kg 1.6 K 0 % 0 % 0 % 0 m²/s² 0 0 1.93 3
11:00 84 J/kg 0.9 K 0 % 0 % 0 % 0 m²/s² 0 0 1.29 80
12:00 76 J/kg 1.0 K 0 % 0 % 0 % 0 m²/s² 0 0 1.36 80
13:00 108 J/kg 0.3 K 0 % 0 % 0 % 0 m²/s² 0 0 0.69 61
14:00 104 J/kg 0.6 K 0 % 0 % 0 % 0 m²/s² 0 0 1.2 61
15:00 83 J/kg 0.8 K 0 % 0 % 0 % 0 m²/s² 0 0 1.19 61
16:00 191 J/kg 0.2 K 0 % 0 % 0 % 0 m²/s² 0 0 0.89 80
17:00 100 J/kg 0.8 K 0 % 0 % 0 % 0 m²/s² 0 0 1.4 80
18:00 106 J/kg 0.2 K 0 % 0 % 0 % 0 m²/s² 0 0 1.4 80
19:00 157 J/kg -0.5 K 0 % 0 % 0 % 0 m²/s² 0 0 0.73 80
20:00 158 J/kg -0.7 K 0 % 0 % 0 % 0 m²/s² 0 0 0.74 80
21:00 247 J/kg -0.8 K 0 % 0 % 0 % 0 m²/s² 0 0 -0.02 80
22:00 168 J/kg -0.3 K 0 % 0 % 0 % 0 m²/s² 0 0 0.18 80
23:00 37 J/kg 0.2 K 0 % 0 % 0 % 0 m²/s² 0 0 0.89 80
 07:43     16:23    Daglengte: 8:40 Vrijdag 22 Nov
00:00 248 J/kg -0.9 K 0 % 0 % 0 % 0 m²/s² 0 0 -0.21 80
01:00 77 J/kg 0.5 K 0 % 0 % 0 % 0 m²/s² 0 0 1.4 95
02:00 102 J/kg -1.0 K 0 % 0 % 0 % 0 m²/s² 0 0 0.23 80
03:00 248 J/kg -1.3 K 0 % 0 % 0 % 0 m²/s² 0 0 0.35 3
04:00 380 J/kg -1.6 K 0 % 0 % 0 % 0 m²/s² 0 0 0.02 2
05:00 383 J/kg -1.2 K 0 % 0 % 0 % 0 m²/s² 0 0 0.9 3
06:00 321 J/kg 0.1 K 0 % 0 % 0 % 0 m²/s² 0 0 3.94 3
07:00 276 J/kg 0.8 K 0 % 0 % 0 % 0 m²/s² 0 0 4.94 80
08:00 190 J/kg 1.6 K 0 % 0 % 0 % 0 m²/s² 0 0 4.57 80
09:00 162 J/kg 2.1 K 0 % 0 % 0 % 0 m²/s² 0 0 4.35 80
10:00 161 J/kg 2.0 K 0 % 0 % 0 % 0 m²/s² 0 0 2.72 80
11:00 215 J/kg 1.1 K 0 % 0 % 0 % 0 m²/s² 0 0 1.58 80
12:00 174 J/kg 1.5 K 0 % 0 % 0 % 0 m²/s² 0 0 1.86 61
13:00 60 J/kg 1.8 K 0 % 0 % 0 % 0 m²/s² 0 0 2.19 63
14:00 17 J/kg 1.8 K 0 % 0 % 0 % 0 m²/s² 0 0 2.16 80
15:00 0 J/kg 0.5 K 0 % 0 % 0 % 0 m²/s² 0 0 0.89 80
16:00 90 J/kg 0.6 K 0 % 0 % 0 % 0 m²/s² 0 0 0.96 80
17:00 126 J/kg 1.4 K 0 % 0 % 0 % 0 m²/s² 0 0 1.85 61
18:00 85 J/kg 2.0 K 0 % 0 % 0 % 0 m²/s² 0 0 2.45 61
19:00 27 J/kg 3.3 K 0 % 0 % 0 % 0 m²/s² 0 0 3.66 61
20:00 5 J/kg 3.8 K 0 % 0 % 0 % 0 m²/s² 0 0 4.16 61
21:00 26 J/kg 4.2 K 0 % 0 % 0 % 0 m²/s² 0 0 4.53 61
22:00 16 J/kg 4.6 K 0 % 0 % 0 % 0 m²/s² 0 0 4.93 61
23:00 14 J/kg 4.9 K 0 % 0 % 0 % 0 m²/s² 0 0 5.23 61
 07:45     16:22    Daglengte: 8:37 Zaterdag 23 Nov
00:00 13 J/kg 5.1 K 0 % 0 % 0 % 0 m²/s² 0 0 5.43 61
01:00 0 J/kg 5.5 K 0 % 0 % 0 % 0 m²/s² 0 0 5.74 61
02:00 0 J/kg 4.4 K 0 % 0 % 0 % 0 m²/s² 0 0 4.64 61
03:00 0 J/kg 4.1 K 0 % 0 % 0 % 0 m²/s² 0 0 4.31 61
04:00 0 J/kg 4.1 K 0 % 0 % 0 % 0 m²/s² 0 0 4.31 61
05:00 0 J/kg 3.9 K 0 % 0 % 0 % 0 m²/s² 0 0 4.11 61
06:00 0 J/kg 4.0 K 0 % 0 % 0 % 0 m²/s² 0 0 4.21 80
07:00 0 J/kg 3.3 K 0 % 0 % 0 % 0 m²/s² 0 0 3.54 3
08:00 0 J/kg 3.2 K 0 % 0 % 0 % 0 m²/s² 0 0 3.41 80
09:00 0 J/kg 2.3 K 0 % 0 % 0 % 0 m²/s² 0 0 2.51 80
10:00 0 J/kg 2.0 K 0 % 0 % 0 % 0 m²/s² 0 0 2.24 80
11:00 0 J/kg 1.7 K 0 % 0 % 0 % 0 m²/s² 0 0 1.91 80
12:00 0 J/kg 1.4 K 0 % 0 % 0 % 0 m²/s² 0 0 1.73 80
13:00 0 J/kg 1.5 K 0 % 0 % 0 % 0 m²/s² 0 0 1.86
14:00 0 J/kg 1.4 K 0 % 0 % 0 % 0 m²/s² 0 0 1.94
15:00 0 J/kg 1.0 K 0 % 0 % 0 % 0 m²/s² 0 0 2.2
Temp Baro Wind Neerslag
  EWN Forecast EWN WRFDA DWD ICON FMI HIRLAM MET Norway GFS
 07:40     16:25    Daglengte: 8:45 Vandaag
18:00 7.7° 1003.4 hPa 7.6 m/s 0.0 mm 7.6° 1000.8 hPa 8.0 m/s 8.3 mm 7.5° 1003.7 hPa 6.8 m/s -1.2 mm 7.9° 1003.7 hPa 8.1 m/s 0.0 mm 8.5° 1003.7 hPa 7.3 m/s 0.0 mm 7.9° 1002.5 hPa 9.6 m/s
21:00 8.9° 1002.4 hPa 7.5 m/s 0.0 mm 8.8° 999.8 hPa 8.2 m/s 8.3 mm 8.5° 1002.6 hPa 5.0 m/s 0.0 mm 9.1° 1002.7 hPa 8.1 m/s 0.0 mm 9.5° 1002.6 hPa 7.5 m/s 0.3 mm 8.6° 1001.5 hPa 9.1 m/s
 07:42     16:24    Daglengte: 8:42 Morgen
00:00 9.4° 1001.1 hPa 7.4 m/s 0.0 mm 9.0° 998.5 hPa 7.9 m/s 8.4 mm 9.5° 1001.5 hPa 6.1 m/s 0.1 mm 9.3° 1001.4 hPa 8.3 m/s 0.0 mm 10.1° 1001.2 hPa 7.4 m/s 0.0 mm 9.0° 1000.6 hPa 9.3 m/s
03:00 9.4° 999.6 hPa 7.4 m/s 2.9 mm 9.6° 996.6 hPa 7.4 m/s 9.0 mm 9.4° 999.9 hPa 6.1 m/s 0.2 mm 9.3° 1000.1 hPa 7.7 m/s 0.0 mm 10.1° 999.8 hPa 7.8 m/s 0.8 mm 9.7° 999.2 hPa 8.5 m/s
06:00 9.5° 998.6 hPa 7.1 m/s 4.6 mm 9.8° 995.5 hPa 7.4 m/s 11.3 mm 9.4° 998.7 hPa 5.6 m/s 0.8 mm 9.8° 999.2 hPa 7.3 m/s 0.0 mm 9.6° 998.9 hPa 7.8 m/s 2.7 mm 9.7° 998.2 hPa 8.2 m/s
09:00 9.5° 998.1 hPa 7.4 m/s 5.0 mm 9.8° 995.0 hPa 7.3 m/s 19.9 mm 9.3° 998.4 hPa 6.5 m/s 1.0 mm 10.4° 998.4 hPa 8.4 m/s 0.0 mm 9.5° 998.3 hPa 7.4 m/s 3.8 mm 9.7° 997.9 hPa 7.7 m/s
12:00 9.6° 996.7 hPa 7.0 m/s 7.0 mm 10.1° 993.6 hPa 6.7 m/s 27.8 mm 9.7° 996.6 hPa 6.0 m/s 1.9 mm 10.3° 997.1 hPa 8.4 m/s 0.0 mm 9.5° 997.4 hPa 6.9 m/s 3.4 mm 9.7° 996.5 hPa 5.6 m/s
15:00 10.0° 995.4 hPa 5.1 m/s 7.0 mm 10.2° 992.5 hPa 3.3 m/s 33.8 mm 9.5° 995.1 hPa 4.7 m/s 4.5 mm 10.4° 996.3 hPa 7.3 m/s 0.0 mm 10.2° 995.8 hPa 5.0 m/s 1.4 mm 10.0° 994.9 hPa 5.5 m/s
18:00 9.2° 994.7 hPa 4.6 m/s 8.2 mm 8.9° 991.9 hPa 1.7 m/s 35.6 mm 9.2° 994.5 hPa 3.0 m/s 3.2 mm 10.0° 996.1 hPa 7.7 m/s 0.0 mm 9.3° 995.1 hPa 4.9 m/s 1.4 mm 9.9° 994.0 hPa 3.9 m/s
21:00 9.1° 994.2 hPa 4.4 m/s 7.4 mm 9.2° 991.7 hPa 1.8 m/s 36.2 mm 8.9° 993.9 hPa 3.1 m/s 2.4 mm 9.9° 995.6 hPa 6.3 m/s 0.0 mm 9.2° 994.6 hPa 4.6 m/s 1.7 mm 9.0° 993.4 hPa 4.1 m/s
 07:43     16:23    Daglengte: 8:40 Vrijdag 22 Nov
00:00 8.3° 993.4 hPa 4.7 m/s 8.1 mm 8.7° 991.2 hPa 3.8 m/s 40.3 mm 8.5° 993.0 hPa 4.1 m/s 1.2 mm 8.9° 994.5 hPa 6.4 m/s 0.0 mm 8.2° 994.1 hPa 5.2 m/s 1.0 mm 8.8° 993.4 hPa 3.3 m/s
03:00 7.9° 992.6 hPa 4.1 m/s 6.0 mm 7.9° 990.9 hPa 1.1 m/s 45.8 mm 8.1° 992.3 hPa 4.2 m/s 1.6 mm 8.5° 993.1 hPa 6.2 m/s 0.0 mm 8.2° 993.4 hPa 4.3 m/s 0.7 mm 8.3° 993.1 hPa 5.5 m/s
06:00 8.2° 992.3 hPa 3.8 m/s 2.9 mm 8.9° 990.8 hPa 2.5 m/s 46.8 mm 8.0° 992.1 hPa 2.8 m/s 0.4 mm 8.9° 992.8 hPa 5.4 m/s 0.0 mm 8.6° 993.3 hPa 4.5 m/s 3.2 mm 7.8° 993.2 hPa 3.7 m/s
09:00 8.7° 992.0 hPa 3.2 m/s 8.4 mm 10.0° 990.8 hPa 2.9 m/s 47.2 mm 8.7° 992.2 hPa 3.4 m/s 1.6 mm 8.8° 992.7 hPa 3.0 m/s 2.9 mm 8.9° 993.1 hPa 4.1 m/s
12:00 9.6° 990.5 hPa 5.6 m/s 10.4 mm 10.1° 990.2 hPa 4.7 m/s 47.6 mm 8.9° 990.5 hPa 4.0 m/s 2.9 mm 9.8° 991.2 hPa 6.2 m/s 5.5 mm 9.2° 992.7 hPa 3.6 m/s
15:00 9.4° 988.4 hPa 6.6 m/s 10.6 mm 8.7° 987.8 hPa 6.1 m/s 53.5 mm 9.7° 988.5 hPa 6.4 m/s 5.6 mm 10.0° 989.3 hPa 8.2 m/s 1.9 mm 9.8° 991.1 hPa 8.0 m/s
18:00 9.8° 987.8 hPa 8.1 m/s 14.7 mm 10.4° 987.4 hPa 6.4 m/s 59.2 mm 10.5° 988.0 hPa 6.0 m/s 0.8 mm 9.8° 988.7 hPa 8.8 m/s 3.4 mm 9.9° 990.8 hPa 9.3 m/s
21:00 9.6° 987.7 hPa 8.1 m/s 11.3 mm 9.8° 988.0 hPa 6.3 m/s 60.5 mm 10.4° 987.7 hPa 5.9 m/s 0.9 mm 9.6° 988.8 hPa 8.5 m/s 3.9 mm 10.0° 990.8 hPa 8.2 m/s
 07:45     16:22    Daglengte: 8:37 Zaterdag 23 Nov
00:00 9.7° 986.4 hPa 6.0 m/s 11.4 mm 10.2° 986.5 hPa 5.9 m/s 60.8 mm 10.1° 986.1 hPa 4.9 m/s 2.4 mm 9.8° 988.9 hPa 6.1 m/s 4.2 mm 9.9° 990.0 hPa 8.4 m/s
03:00 9.6° 985.6 hPa 3.8 m/s 11.2 mm 9.2° 985.3 hPa 8.5 m/s 61.6 mm 10.4° 985.6 hPa 4.7 m/s 4.2 mm 9.7° 988.4 hPa 3.0 m/s 2.5 mm 10.2° 989.5 hPa 7.9 m/s
06:00 9.5° 986.0 hPa 3.2 m/s 11.9 mm 9.1° 985.6 hPa 8.3 m/s 63.3 mm 10.7° 985.9 hPa 4.3 m/s 4.9 mm 9.6° 989.5 hPa 2.0 m/s 3.6 mm 10.4° 990.0 hPa 6.9 m/s
09:00 10.1° 989.5 hPa 3.6 m/s 22.8 mm 9.6° 987.2 hPa 8.2 m/s 64.5 mm 11.5° 987.9 hPa 3.8 m/s 2.0 mm 9.8° 991.3 hPa 2.5 m/s 10.7° 991.8 hPa 5.3 m/s
12:00 10.4° 991.3 hPa 3.8 m/s 24.9 mm 10.2° 989.0 hPa 6.1 m/s 68.3 mm 11.8° 989.6 hPa 4.1 m/s 3.1 mm 10.1° 993.1 hPa 3.0 m/s 10.8° 993.6 hPa 5.1 m/s
15:00 9.5° 994.6 hPa 4.3 m/s 75.1 mm 10.6° 990.8 hPa 4.4 m/s 75.1 mm 9.3° 995.2 hPa 4.3 m/s 10.2° 995.2 hPa 4.9 m/s
18:00 8.7° 996.8 hPa 5.3 m/s 77.5 mm 10.0° 993.6 hPa 3.2 m/s 77.5 mm 8.5° 997.3 hPa 5.6 m/s 10.1° 998.4 hPa 2.5 m/s
21:00 8.1° 999.8 hPa 4.0 m/s 45.4 mm 7.9° 999.7 hPa 4.1 m/s 9.8° 1001.0 hPa 2.4 m/s 45.4 mm
 07:47     16:21    Daglengte: 8:34 Zondag 24 Nov
00:00 7.8° 1001.1 hPa 3.3 m/s 45.4 mm 7.6° 1000.9 hPa 3.4 m/s 9.8° 1003.3 hPa 2.1 m/s 45.4 mm
03:00 8.4° 1000.8 hPa 4.5 m/s 45.4 mm 8.3° 1000.5 hPa 4.7 m/s 9.1° 1004.6 hPa 2.9 m/s 45.4 mm
06:00 9.0° 1000.5 hPa 5.6 m/s 45.4 mm 9.0° 1000.0 hPa 5.9 m/s 8.9° 1006.3 hPa 2.0 m/s 45.4 mm
09:00 9.9° 997.0 hPa 8.0 m/s 45.4 mm 9.8° 996.0 hPa 8.5 m/s 9.9° 1008.0 hPa 2.9 m/s 45.4 mm
12:00 10.7° 993.4 hPa 10.6 m/s 45.4 mm 10.7° 992.0 hPa 11.1 m/s 10.2° 1008.9 hPa 5.4 m/s 45.4 mm
15:00 11.5° 992.3 hPa 9.0 m/s 45.4 mm 11.6° 990.9 hPa 9.3 m/s 10.1° 1008.4 hPa 4.9 m/s 45.4 mm
18:00 12.3° 991.2 hPa 7.5 m/s 45.5 mm 12.5° 989.7 hPa 7.6 m/s 10.1° 1007.8 hPa 6.8 m/s 45.5 mm
21:00 11.7° 990.6 hPa 6.3 m/s 47.0 mm 11.8° 989.2 hPa 6.0 m/s 10.9° 1006.8 hPa 9.4 m/s 47.0 mm
 07:48     16:20    Daglengte: 8:32 Maandag 25 Nov
00:00 11.2° 990.0 hPa 5.0 m/s 52.9 mm 11.1° 988.6 hPa 4.5 m/s 12.3° 1005.0 hPa 10.1 m/s 52.9 mm
03:00 10.4° 990.8 hPa 5.1 m/s 54.8 mm 10.1° 989.7 hPa 4.8 m/s 12.8° 1003.0 hPa 8.0 m/s 54.8 mm
06:00 9.5° 991.6 hPa 5.4 m/s 55.6 mm 9.2° 990.7 hPa 5.1 m/s 13.0° 1001.5 hPa 8.8 m/s 55.6 mm
09:00 10.2° 992.8 hPa 6.7 m/s 57.6 mm 10.0° 992.0 hPa 6.4 m/s 12.5° 1001.7 hPa 9.8 m/s 57.6 mm
12:00 11.0° 993.9 hPa 7.9 m/s 58.3 mm 10.8° 993.2 hPa 7.7 m/s 12.7° 1002.1 hPa 10.0 m/s 58.3 mm
15:00 10.5° 995.2 hPa 7.3 m/s 58.7 mm 10.4° 994.5 hPa 7.1 m/s 12.3° 1002.5 hPa 10.4 m/s 58.7 mm
18:00 10.1° 996.4 hPa 6.7 m/s 59.0 mm 9.9° 995.8 hPa 6.4 m/s 11.8° 1002.9 hPa 10.0 m/s 59.0 mm
21:00 10.0° 997.8 hPa 6.3 m/s 59.1 mm 9.8° 997.1 hPa 6.0 m/s 11.8° 1004.5 hPa 9.8 m/s 59.1 mm
 07:50     16:19    Daglengte: 8:29 Dinsdag 26 Nov
00:00 9.9° 999.0 hPa 5.8 m/s 59.2 mm 9.7° 998.5 hPa 5.5 m/s 11.7° 1005.1 hPa 9.2 m/s 59.2 mm
03:00 9.7° 999.6 hPa 5.5 m/s 59.3 mm 9.6° 999.0 hPa 5.3 m/s 11.3° 1005.7 hPa 7.6 m/s 59.3 mm
06:00 9.5° 1000.0 hPa 5.2 m/s 59.4 mm 9.4° 999.5 hPa 5.1 m/s 10.7° 1005.7 hPa 6.4 m/s 59.4 mm
09:00 10.4° 1000.3 hPa 5.0 m/s 59.4 mm 10.4° 999.8 hPa 5.0 m/s 11.0° 1006.4 hPa 4.6 m/s 59.4 mm
12:00 11.4° 1000.5 hPa 5.0 m/s 59.5 mm 11.3° 1000.1 hPa 5.0 m/s 12.4° 1005.5 hPa 5.3 m/s 59.5 mm
15:00 11.0° 998.9 hPa 4.5 m/s 59.5 mm 10.9° 998.5 hPa 4.2 m/s 12.6° 1002.2 hPa 7.3 m/s 59.5 mm
18:00 10.6° 997.2 hPa 4.0 m/s 60.7 mm 10.4° 997.0 hPa 3.4 m/s 13.0° 999.5 hPa 10.1 m/s 60.7 mm
21:00 10.8° 992.3 hPa 6.2 m/s 61.5 mm 10.6° 991.8 hPa 5.8 m/s 13.3° 998.1 hPa 10.1 m/s 61.5 mm
 07:51     16:18    Daglengte: 8:27 Woensdag 27 Nov
00:00 11.0° 987.4 hPa 8.4 m/s 66.8 mm 10.8° 986.6 hPa 8.3 m/s 13.0° 996.6 hPa 9.5 m/s 66.8 mm
03:00 11.0° 984.6 hPa 7.6 m/s 67.7 mm 10.9° 983.7 hPa 7.9 m/s 11.3° 995.6 hPa 4.7 m/s 67.6 mm
06:00 11.1° 981.8 hPa 7.4 m/s 68.3 mm 11.1° 980.7 hPa 7.4 m/s 11.4° 993.8 hPa 7.1 m/s 68.3 mm
09:00 11.0° 980.7 hPa 7.9 m/s 68.6 mm 10.9° 979.5 hPa 7.8 m/s 11.5° 993.3 hPa 8.5 m/s 68.6 mm
12:00 10.8° 979.4 hPa 8.4 m/s 69.3 mm 10.7° 978.3 hPa 8.2 m/s 12.4° 992.1 hPa 10.1 m/s 69.3 mm
15:00 10.2° 981.1 hPa 6.5 m/s 70.6 mm 10.0° 980.2 hPa 6.0 m/s 12.4° 990.5 hPa 11.6 m/s 70.6 mm
18:00 9.5° 982.8 hPa 4.5 m/s 72.1 mm 9.3° 982.2 hPa 3.8 m/s 11.8° 989.9 hPa 11.9 m/s 72.1 mm
 07:52     16:18    Daglengte: 8:26 Donderdag 28 Nov
00:00 8.7° 986.0 hPa 2.8 m/s 74.9 mm 8.5° 985.7 hPa 2.1 m/s 11.1° 989.9 hPa 11.0 m/s 74.9 mm
06:00 7.4° 988.9 hPa 2.9 m/s 76.2 mm 7.1° 988.9 hPa 2.4 m/s 10.5° 989.0 hPa 8.4 m/s 76.2 mm
12:00 10.2° 991.6 hPa 4.4 m/s 77.1 mm 10.0° 991.9 hPa 4.0 m/s 11.9° 988.4 hPa 8.7 m/s 77.1 mm
18:00 8.4° 994.0 hPa 4.4 m/s 77.9 mm 8.3° 994.5 hPa 4.2 m/s 9.7° 988.3 hPa 6.2 m/s 77.9 mm
 07:54     16:17    Daglengte: 8:23 Vrijdag 29 Nov
00:00 8.4° 997.4 hPa 4.8 m/s 78.1 mm 8.2° 997.8 hPa 4.5 m/s 10.0° 993.0 hPa 7.8 m/s 78.1 mm
06:00 8.8° 999.2 hPa 6.6 m/s 78.3 mm 8.7° 999.3 hPa 6.5 m/s 9.8° 998.2 hPa 7.9 m/s 78.3 mm
12:00 8.3° 1001.0 hPa 7.9 m/s 78.3 mm 8.1° 1000.8 hPa 8.0 m/s 10.9° 1003.3 hPa 6.4 m/s 78.3 mm
18:00 7.6° 1001.5 hPa 5.1 m/s 78.4 mm 7.6° 1001.2 hPa 5.2 m/s 8.0° 1005.2 hPa 3.6 m/s 78.4 mm
 07:55     16:16    Daglengte: 8:21 Zaterdag 30 Nov
00:00 7.1° 1005.2 hPa 4.3 m/s 78.4 mm 7.2° 1004.9 hPa 4.5 m/s 6.2° 1008.4 hPa 2.6 m/s 78.4 mm
06:00 6.7° 1007.5 hPa 6.5 m/s 78.5 mm 6.7° 1007.5 hPa 6.5 m/s 78.5 mm
12:00 10.3° 1010.1 hPa 2.3 m/s 2.0 mm
18:00 10.1° 1009.5 hPa 3.0 m/s 3.0 mm
 07:57     16:16    Daglengte: 8:19 Zondag 01 Dec
00:00 10.0° 1010.8 hPa 4.3 m/s 1.3 mm
06:00 10.0° 1011.5 hPa 5.0 m/s 1.4 mm
12:00 10.9° 1012.3 hPa 5.6 m/s 1.1 mm
18:00 10.5° 1010.7 hPa 5.0 m/s 2.3 mm
 07:58     16:15    Daglengte: 8:17 Maandag 02 Dec
00:00 10.6° 1010.3 hPa 6.5 m/s 2.4 mm
06:00 10.8° 1010.1 hPa 6.3 m/s 1.6 mm
12:00 11.4° 1011.3 hPa 5.9 m/s 1.6 mm
18:00 10.7° 1011.0 hPa 6.0 m/s 1.4 mm
 07:59     16:15    Daglengte: 8:16 Dinsdag 03 Dec
00:00 10.5° 1010.5 hPa 5.3 m/s 1.3 mm
06:00 10.3° 1010.0 hPa 4.0 m/s 0.4 mm
12:00 11.0° 1011.4 hPa 4.4 m/s 1.1 mm
18:00 10.2° 1011.7 hPa 2.9 m/s 2.0 mm
 08:00     16:14    Daglengte: 8:14 Woensdag 04 Dec
00:00 10.3° 1011.4 hPa 3.6 m/s 2.1 mm
06:00 10.1° 1010.6 hPa 4.0 m/s 1.7 mm
12:00 10.6° 1011.8 hPa 4.5 m/s 2.4 mm
18:00 10.4° 1011.0 hPa 5.0 m/s 2.5 mm
 08:02     16:14    Daglengte: 8:12 Donderdag 05 Dec
00:00 10.6° 1010.5 hPa 6.0 m/s 2.1 mm
06:00 10.7° 1009.9 hPa 5.3 m/s 2.1 mm
12:00 11.2° 1011.1 hPa 5.1 m/s 1.3 mm
FMI Hirlam - 7.5 km EWN WRFDA - 12 km DWD ICON - 7 km GFS - 25 km Basiskaart






























































Updatetijd (Europe/Amsterdam) Resolutie Lengte Stap
FMI Hirlam 12:15, 18:15, 00:15, 06:15 7.5 km 49h 1h
EWN WRFDA 14:30, 20:30, 02:30, 08:30 12 km 73h 1h
DWD ICON 10:45, 16:45, 22:45, 04:45 7 km 75h 1h
GFS 13:30, 19:30, 01:30, 07:30 25 km 237h 3h
30+ mm
25-30 mm
20-25 mm
15-20 mm
10-15 mm
6-10 mm
4-6 mm
2-4 mm
1-2 mm
0.5-1 mm
0.2-0.5 mm
0.1-0.2 mm
30+ mm
25-30 mm
20-25 mm
15-20 mm
10-15 mm
6-10 mm
4-6 mm
2-4 mm
1-2 mm
0.5-1 mm
0.2-0.5 mm
0.1-0.2 mm
Sneeuwval
Natte sneeuw
Hagel
Vorst
30+ mm
25-30 mm
20-25 mm
15-20 mm
10-15 mm
6-10 mm
4-6 mm
2-4 mm
1-2 mm
0.5-1 mm
0.2-0.5 mm
0.1-0.2 mm
Sneeuwval
Natte sneeuw
Hagel
Vorst
Onweer
50 mm
40 mm
30 mm
26 mm
22 mm
18 mm
14 mm
10 mm
9 mm
8 mm
7 mm
6 mm
5 mm
4.5 mm
4 mm
3.5 mm
3 mm
2.5 mm
2 mm
1.5 mm
1 mm
0.8 mm
0.6 mm
0.4 mm
0.2 mm
0.05 mm
35°
30°
25°
20°
15°
10°
-5°
-10°
-15°
-20°
-25°
-30°
-35°
33> m/s
29 m/s
25 m/s
21 m/s
17 m/s
14 m/s
11 m/s
8 m/s
5 m/s
3 m/s
0 m/s
2600 J/kg
2400 J/kg
2200 J/kg
2000 J/kg
1800 J/kg
1600 J/kg
1400 J/kg
1200 J/kg
1000 J/kg
800 J/kg
600 J/kg
400 J/kg
200 J/kg
70 dBZ
65 dBZ
60 dBZ
55 dBZ
50 dBZ
45 dBZ
40 dBZ
35 dBZ
30 dBZ
25 dBZ
20 dBZ
15 dBZ
10 dBZ
5 dBZ
-1 K
-2 K
-3 K
-4 K
-5 K
-6 K
-7 K
-8 K
-9 K
950 m²/s²
900 m²/s²
850 m²/s²
800 m²/s²
750 m²/s²
700 m²/s²
650 m²/s²
600 m²/s²
550 m²/s²
500 m²/s²
450 m²/s²
400 m²/s²
350 m²/s²
300 m²/s²
250 m²/s²
200 m²/s²
150 m²/s²
100 m²/s²
46 m/s
44 m/s
42 m/s
40 m/s
38 m/s
36 m/s
34 m/s
32 m/s
30 m/s
28 m/s
26 m/s
24 m/s
22 m/s
20 m/s
16 m/s
12 m/s
8 m/s
4 m/s
30 m/s
28 m/s
26 m/s
24 m/s
22 m/s
20 m/s
18 m/s
16 m/s
14 m/s
12 m/s
10 m/s
8 m/s
6 m/s
4 m/s
2 m/s
3.0
2.8
2.6
2.4
2.2
2.0
1.8
1.6
1.4
1.2
1.0
0.8
0.6
0.4
0.2
15
14
13
12
11
10
9
8
7
6
5
4
3
2
1
90%
80%
70%
60%
50%
40%
30%
20%
10%
42
40
38
36
34
32
30
28
26
24
22
20
18
16
14
12
90+ cm
80-90 cm
70-80 cm
60-70 cm
50-60 cm
40-50 cm
30-40 cm
20-30 cm
10-20 cm
1-10 cm
Sneeuwval
Natte sneeuw
Regen
>120 mm
115 mm
110 mm
105 mm
100 mm
95 mm
90 mm
85 mm
80 mm
75 mm
70 mm
65 mm
60 mm
55 mm
50 mm
45 mm
45 mm
40 mm
35 mm
30 mm
25 mm
20 mm
15 mm
10 mm
5 mm
0.1 mm
960 hPa
880 hPa
800 hPa
720 hPa
640 hPa
560 hPa
584 gpdm
568 gpdm
552 gpdm
536 gpdm
520 gpdm
504 gpdm
488 gpdm
Extreem zwaar Noodweer Kans op onweer
15% 15% 5% 50% 15%

Dag




Kaart






35°
30°